Regional Weather Roundup
Issued by NWS

Home | Current Version | Previous Version | Graphics & Text | Print | Product List | Glossary On
Versions: 1 2 3 4 5 6 7 8 9 10 11 12 13 14 15 16 17 18 19 20 21 22 23 24 25 26 27 28 29 30 31 32 33 34 35 36 37 38 39 40 41 42 43 44 45 46 47 48 49 50
000
ASUS43 KMKX 202211
RWRWI

WISCONSIN REGIONAL WEATHER ROUNDUP
NATIONAL WEATHER SERVICE MILWAUKEE/SULLIVAN WI
500 PM CDT MON OCT 20 2014

NOTE: "FAIR" INDICATES FEW OR NO CLOUDS BELOW 12,000 FEET WITH NO
SIGNIFICANT WEATHER AND/OR OBSTRUCTIONS TO VISIBILITY.

WIZ001-002-006>008-014>016-023>028-202300-
NORTHWEST WISCONSIN

CITY           SKY/WX    TMP DP  RH WIND       PRES   REMARKS
SUPERIOR ARPT  CLOUDY    50  40  67 N8        30.04R
ASHLAND        CLOUDY    52  39  61 N9        30.02R
HAYWARD        CLOUDY    52  40  63 VRB3      30.01R
SIREN          CLOUDY    53  39  57 N9        30.02R
CUMBERLAND     CLOUDY    52  37  58 N9        30.00R
RICE LAKE      CLOUDY    52  39  61 N9        30.02R
CHETEK         CLOUDY    52  40  62 N12       30.00R
LADYSMITH      CLOUDY    53  39  59 N8        30.00R
EAU CLAIRE     SUNNY     56  38  50 N12       29.99R
MENOMONIE      MOSUNNY   57  39  52 N10       29.99R
NEW RICHMOND   SUNNY     59  39  48 N5        30.00R
OSCEOLA        SUNNY     58  41  52 NW10      30.02R
$$

WIZ003>005-009-010-017-018-202300-
NORTH CENTRAL WISCONSIN

CITY           SKY/WX    TMP DP  RH WIND       PRES   REMARKS
MANITOWISH WTR DRIZZLE   45  44  97 N3        29.98R
ARBOR VITAE    MOCLDY    47  41  80 N12       29.97R
WOODRUFF       MOCLDY    47  41  80 N12       29.97R
RHINELANDER    LGT RAIN  44  42  93 NW6       29.97R FOG
EAGLE RIVER    RAIN      44  42  91 N8        29.96R
LAND O LAKES   LGT RAIN  44  41  88 N9G16     29.97R
PHILLIPS       CLOUDY    48  39  71 NW5       29.97S
TOMAHAWK       CLOUDY    47  40  76 N3        29.98R
MEDFORD        CLOUDY    48  40  72 N5        29.97R
MERRILL        CLOUDY    49  40  72 N9        29.97R
$$

WIZ029-030-035-036-043>047-202300-
CENTRAL WISCONSIN

CITY           SKY/WX    TMP DP  RH WIND       PRES   REMARKS
WAUSAU         CLOUDY    50  40  68 NW8       29.95R
MOSINEE        CLOUDY    48  43  81 N12G20    29.97R
MARSHFIELD     CLOUDY    53  39  59 N10       29.97R
STEVENS POINT  CLOUDY    49  39  67 NW7       29.97R
WAUPACA        CLOUDY    54  44  70 NW6       29.95R
WAUTOMA        CLOUDY    54  44  68 CALM      29.96R
WISC RAPIDS    CLOUDY    53  40  61 N14       29.98R
CAMP DOUGLAS   PTSUNNY   55  41  58 N8        29.97R
$$

WIZ011>013-019>022-031-037>040-048>050-202300-
NORTHEAST WISCONSIN

CITY           SKY/WX    TMP DP  RH WIND       PRES   REMARKS
ANTIGO         CLOUDY    47  40  76 NW17      29.95R
SHAWANO        CLOUDY    53  44  72 W3        29.94R
OCONTO         CLOUDY    50  45  81 NW3       29.92R
STURGEON BAY   CLOUDY    50  43  76 N9        29.92R
GREEN BAY      CLOUDY    52  44  74 NW12      29.94R
MANITOWOC      CLOUDY    52  43  71 N10       29.92R
APPLETON       CLOUDY    52  43  71 NW12      29.94R
CLINTONVILLE   CLOUDY    52  41  66 NW7       29.94R
OSHKOSH        CLOUDY    52  44  74 NW8       29.93R
$$

WIZ032>034-041-042-053>061-202300-
SOUTHWEST WISCONSIN

CITY           SKY/WX    TMP DP  RH WIND       PRES   REMARKS
LA CROSSE      MOSUNNY   63  42  46 N7        29.95R
SPARTA         MOSUNNY   59  38  46 N9        29.97R
VIROQUA        MOSUNNY   59  40  49 N12       29.95S
BOSCOBEL       PTSUNNY   66  42  41 N6        29.95R
PRAIRIE DU CHI SUNNY     64  39  39 NW9       29.94R
PLATTEVILLE    MOSUNNY   63  41  45 NW10      29.95R
$$

WIZ056-057-062-063-064-067-068-202300-
SOUTH CENTRAL WISCONSIN

CITY           SKY/WX    TMP DP  RH WIND       PRES   REMARKS
REEDSBURG      CLOUDY    56  41  56 N10       29.95R
BARABOO/DELLS  CLOUDY    56  36  47 N10       29.95R
LONE ROCK      MOSUNNY   65  39  38 N12       29.94R
MINERAL POINT  MOSUNNY   63  36  36 NW8G17    29.94R
MADISON        CLOUDY    56  41  57 N9        29.94R
MIDDLETON      CLOUDY    58  39  49 N9        29.95R
WATERTOWN      CLOUDY    52  41  67 N10       29.93S
MONROE         CLOUDY    59  43  55 N8        29.93R
JANESVILLE     PTSUNNY   59  39  47 N12G18    29.93R
$$

WIZ051-052-058>065-066-070>072-202300-
SOUTHEAST WISCONSIN

CITY           SKY/WX    TMP DP  RH WIND       PRES   REMARKS
MILWAUKEE      CLOUDY    54  41  61 NW9       29.92R
WAUKESHA       NOT AVBL
MILWAUKEE/TIMM CLOUDY    54  41  62 N12       29.92R
RACINE         CLOUDY    54  43  66 NW9       29.93R
BURLINGTON     CLOUDY    53  41  64 N10       29.93R
KENOSHA        CLOUDY    55  45  68 NW12G18   29.92R
FOND DU LAC    CLOUDY    53  42  66 N12       29.93R
SHEBOYGAN      CLOUDY    53  41  63 N8        29.92R
WEST BEND      CLOUDY    52  41  66 NW8       29.92R
JUNEAU         CLOUDY    52  41  66 NW8       29.95R
$$

LSZ147-162-202300-
LAKE SUPERIOR

STATION/POSITION TIME  TEMP    WIND        PRES    WAVE
                       AIR SEA DIR/SP/G            HT/PER
                 (UTC) (F)     (DEG/KT/KT) (MB)    (FT/S)
W MID LAKE BUOY  2150   46 47   50/  6/  6 1016.3R   1
DEVILS ISLAND    2200   50     340/  8/  9 1016.9R
PORT WING        2100   50     340/  6/  9 1016.3R
SAXON HARBOR     2100   50      10/  9/ 11 1015.6R
$$

LMZ867-665-643>646-202300-
LAKE MICHIGAN

STATION/POSITION TIME  TEMP    WIND        PRES    WAVE
                       AIR SEA DIR/SP/G            HT/PER
                 (UTC) (F)     (DEG/KT/KT) (MB)    (FT/S)
CHAMBERS ISLAND  2100   51     310/ 15/ 19 1012.5R
N MID LAKE BUOY  2150   48 51  330/ 21/ 25 1012.0R   4/ 4
NORTHPORT PIER   2100   50     340/ 16/ 18 1012.2R
KEWAUNEE LAKESHO 2100   52     340/  6/ 10 1011.5R
SHEBOYGAN LAKESH 2200   53 50  350/  9/ 10 1013.5R
PORT WASHINGTON  2100   55     330/  6/ 13 1013.2R
ATWATER BUOY     2200   54     320/ 12/ 14 1014.1R
MILWAUKEE LAKESH 2100   55     330/  9/ 15   N/A
S MID LAKE BUOY  2150   53 55  340/ 17/ 19 1012.3R   3/ 5
KENOSHA   LAKESH 2200   54     360/  7/  9 1013.2R
$$

TC  - TEMPERATURE IN CELSIUS
VSB - VISIBILITY IN STATUTE MILES
WCI - WIND CHILL INDEX
HX  - HEAT INDEX



USA.gov is the U.S. government's official web portal to all federal, state and local government web resources and services.